User: anonymous   Login
Location: Unspecified
(0.0000°N, 0.0000°E)
Time: 23:16:09
(UTC+00:00)
Language:

Landsat 7 - Orbit

View from above orbital plane
View from above orbital plane
View from above satellite
View from above satellite

Ground track
Ground track

The orbit data is extracted from the following two-line orbital elements,

1 25682U 99020A   16237.26748186 -.00000092  00000-0 -10291-4 0  9994
2 25682  98.2089 306.7295 0000944  94.3908 265.7388 14.57106791923355
Epoch (UTC): 24 August 2016 06:25:10
Eccentricity: 0.0000944
inclination: 98.2089°
perigee height: 702 km
apogee height: 703 km
right ascension of ascending node: 306.7295°
argument of perigee: 94.3908°
revolutions per day: 14.57106791
mean anomaly at epoch: 265.7388°
orbit number at epoch: 92335

The dashed part of the orbit path shows where the satellite is in the earth's shadow,  

DLR